Theta_e
324 324 323 323 323 324 323 322 321 320 321 316 312 310 312 311 309 310 318 316 322 327 329 328 329 331 331 332 335 334 332 332 333 334 333 332 332 332 332 331 332 333 333 333 332 333 332 332 332 332 336 334 334 334
323 324 323 324 323 322 323 322 321 320 321 317 312 309 310 311 308 309 320 319 318 322 326 325 325 327 328 329 330 331 333 334 333 333 333 333 334 332 333 334 334 333 331 333 336 339 335 333 334 332 333 334 333 333
323 323 323 323 323 322 323 322 321 320 320 318 312 308 308 311 309 308 309 314 321 323 324 324 323 324 325 326 326 329 331 331 331 330 332 333 333 333 333 332 331 333 331 330 333 334 334 332 332 332 332 332 331 330
322 322 322 323 323 322 322 322 320 319 319 318 313 308 307 309 308 307 310 316 320 322 324 327 325 324 324 325 326 326 327 327 328 328 329 330 330 329 330 331 332 333 332 331 333 335 333 332 331 331 330 329 329 329
322 322 322 322 322 322 323 322 319 318 318 317 312 307 306 307 307 307 309 316 321 322 327 326 326 325 323 323 325 325 324 325 326 326 327 327 327 329 330 330 330 329 330 330 333 334 333 332 331 330 330 331 330 327
321 321 322 321 321 321 322 321 318 318 317 315 309 306 306 306 306 307 322 322 321 321 323 324 325 326 323 324 324 324 325 326 326 326 327 328 330 329 329 331 330 328 329 329 331 331 331 332 330 330 330 328 326 325
320 320 320 320 320 320 320 319 317 317 316 312 307 306 305 306 306 314 322 323 320 320 324 323 324 326 324 324 325 325 325 326 326 327 327 328 329 327 327 329 329 330 329 329 329 330 331 330 330 328 327 325 324 323
319 319 318 318 318 317 317 316 316 317 314 308 306 305 305 306 306 309 311 318 319 321 322 326 325 326 324 325 326 325 326 326 326 326 327 327 328 328 328 327 331 330 329 329 329 328 329 330 328 326 325 323 323 322
317 317 317 317 316 316 316 316 316 315 310 306 305 305 306 307 315 320 318 313 320 323 326 323 326 327 325 325 326 326 326 329 327 328 326 327 328 330 329 328 331 330 329 329 328 329 329 329 327 325 323 322 321 318
316 315 315 316 316 316 315 316 315 312 306 305 305 317 320 320 317 318 315 321 320 320 322 324 323 327 325 325 328 327 326 328 330 330 327 329 328 326 329 330 330 329 329 329 329 329 328 327 326 324 322 319 316 315
313 313 314 314 314 315 315 315 313 306 304 314 317 319 322 319 320 322 323 322 322 324 322 320 321 327 324 328 329 327 330 328 329 330 330 329 330 329 329 327 330 330 330 329 330 330 327 326 324 323 319 315 314 316
311 312 312 313 313 314 313 314 308 305 311 312 315 318 319 321 322 323 324 323 324 325 323 323 321 323 325 326 328 328 329 329 330 330 330 330 335 332 330 330 330 330 330 329 327 325 324 322 320 318 315 314 315 315
310 310 310 309 310 309 307 307 304 303 304 308 316 320 321 322 322 323 326 326 327 324 325 322 322 324 325 326 327 328 329 330 328 329 330 333 336 333 331 330 331 330 328 327 325 323 322 319 317 315 314 314 313 315
306 306 305 305 305 305 306 305 303 303 309 314 318 319 323 323 323 324 324 326 325 326 326 324 322 323 323 326 328 328 328 328 329 329 330 336 334 332 331 331 330 329 328 326 324 322 320 317 316 315 315 315 313 313
303 303 303 303 303 304 304 304 304 303 310 315 317 321 320 320 322 322 323 326 325 326 326 323 323 325 327 328 327 328 328 327 327 328 329 335 333 333 332 331 330 329 328 325 323 321 319 317 316 316 316 316 314 313
301 302 302 303 303 305 305 304 304 306 311 313 316 318 318 320 321 321 322 324 324 326 326 323 325 327 327 327 327 328 326 326 327 327 333 334 334 333 332 331 330 329 327 325 323 321 318 316 316 317 317 317 315 314
299 301 302 303 304 305 304 304 305 306 310 313 314 314 317 321 321 321 322 324 325 326 328 327 327 327 327 327 328 327 327 326 326 327 330 333 334 333 333 332 330 328 326 324 323 320 317 317 316 317 318 317 316 315
299 300 301 302 304 304 304 305 305 308 310 311 312 314 315 318 321 323 322 323 323 325 326 326 327 327 328 328 328 327 325 325 326 328 332 334 334 334 333 331 330 327 326 324 321 318 317 317 317 318 318 317 317 317
299 300 299 301 302 305 305 305 307 309 311 312 312 312 315 316 318 320 322 321 322 324 327 327 327 327 327 327 327 326 325 326 328 328 333 334 334 333 332 330 328 327 325 322 320 317 317 317 318 318 316 316 315 314
299 299 299 300 301 304 305 306 306 308 312 312 311 313 314 315 315 316 319 320 321 323 326 328 328 327 328 327 326 326 326 326 327 329 331 332 332 332 331 329 326 326 324 322 319 317 317 317 317 316 317 316 315 314
299 300 299 300 300 302 304 307 307 308 311 312 311 311 313 314 314 314 316 319 321 323 325 326 326 326 327 328 328 328 327 326 326 326 328 329 329 329 329 328 326 325 323 322 320 317 317 317 318 317 316 316 316 314
300 299 300 300 301 302 304 306 308 309 310 311 312 310 312 314 315 314 314 315 318 321 322 324 324 326 326 326 328 329 329 329 327 327 326 327 328 327 327 327 325 325 323 322 320 318 316 317 317 317 317 316 315 316
299 300 300 301 302 303 306 306 308 309 311 311 312 312 312 313 315 316 316 316 316 317 319 322 324 327 326 327 328 328 330 328 326 326 326 326 326 326 326 326 325 325 324 322 321 318 318 317 316 316 317 317 317 316
299 300 301 303 303 306 307 308 308 310 310 311 313 314 315 315 315 316 316 316 316 316 316 318 320 323 324 324 324 324 324 325 324 325 326 326 325 326 326 325 324 325 324 324 322 319 318 317 317 317 316 317 318 317
300 302 302 304 305 307 309 309 309 311 312 311 311 312 313 313 314 316 317 317 317 317 317 317 317 317 317 319 321 322 322 322 323 323 323 322 322 322 322 323 323 325 324 325 323 320 318 317 318 317 318 318 318 317
304 304 305 305 308 308 309 311 311 311 312 312 311 312 312 313 313 315 316 316 317 318 319 319 319 319 317 317 317 317 317 319 321 322 321 322 321 321 320 321 323 324 325 322 319 322 318 317 318 318 318 317 317 316
307 308 307 305 307 308 309 309 309 311 311 312 312 311 313 314 315 315 317 318 319 319 320 320 320 320 320 321 320 318 318 319 319 318 319 320 319 319 320 321 324 323 322 320 322 320 317 318 318 317 318 317 317 317
305 306 307 308 308 308 309 310 311 312 312 313 314 314 314 315 319 318 318 318 318 318 318 318 319 319 320 321 321 320 320 320 320 319 319 317 318 321 321 322 324 322 322 323 322 318 318 318 318 318 318 317 317 316
306 306 306 307 308 308 308 310 311 311 313 313 316 316 315 316 317 316 317 317 317 317 317 317 317 318 318 320 323 322 322 322 322 322 320 320 321 321 322 323 323 322 320 319 317 318 318 318 318 318 317 316 316 316
306 306 308 309 309 310 309 309 310 311 312 313 314 314 315 315 314 314 315 315 316 315 315 315 316 317 317 318 321 322 323 322 323 323 322 319 319 320 321 322 321 318 317 317 317 317 317 317 317 316 316 316 317 316
306 307 308 308 310 310 310 310 310 311 311 312 313 313 313 313 313 313 314 314 314 315 315 315 315 316 317 318 320 322 321 323 323 322 323 319 320 320 321 320 318 317 318 318 318 318 316 315 316 316 316 317 317 315
308 308 308 309 310 310 311 311 312 312 312 312 313 313 313 314 315 316 316 317 318 317 315 315 316 316 318 319 323 324 322 325 323 325 323 320 320 320 320 318 318 318 319 319 318 317 316 316 317 318 318 317 317 317
309 309 309 309 310 312 312 312 313 314 315 316 317 317 317 317 316 317 317 317 318 319 320 317 317 319 320 321 323 323 323 325 323 323 323 321 321 319 318 319 319 319 319 318 317 318 317 317 319 319 319 318 316 315
Wind_Speed
17 17 17 16 16 17 16 18 21 20 18 18 18 18 16 14 11 9 4 7 6 8 10 4 5 6 4 6 5 11 5 6 5 7 8 10 6 8 6 10 11 7 10 10 8 10 11 8 5 6 7 4 3 4
19 18 18 18 17 16 14 15 19 21 18 18 17 16 15 13 10 9 3 8 8 7 8 8 8 7 3 3 8 2 6 5 8 4 3 5 8 5 10 12 5 7 7 7 7 6 4 4 5 5 4 7 4 4
20 20 17 17 17 15 15 15 17 21 17 18 18 16 14 13 10 8 7 9 9 9 14 12 9 8 7 6 5 6 3 3 2 4 9 5 6 8 9 8 10 6 3 6 3 7 5 6 7 6 7 8 5 4
18 20 20 18 16 16 16 15 16 21 17 17 17 16 14 12 10 8 5 7 5 7 6 7 5 7 7 7 6 5 3 2 4 6 10 7 8 5 8 5 5 6 5 5 6 7 6 6 7 8 8 5 4 3
18 17 19 19 18 17 17 16 16 20 19 16 16 16 14 12 9 8 6 4 4 3 7 7 1 5 5 9 8 7 7 8 8 8 6 7 13 2 9 7 8 11 8 7 3 14 5 14 9 6 5 4 2 4
18 18 19 18 17 18 17 16 17 21 16 15 15 14 13 11 7 3 3 2 2 3 6 4 4 4 5 8 9 8 8 6 8 8 7 5 2 4 6 8 11 6 2 3 3 7 7 12 8 6 5 1 2 5
19 18 17 16 15 15 15 16 18 16 14 14 14 13 11 9 6 5 2 3 5 3 5 5 6 8 9 11 10 9 9 7 7 8 6 8 8 7 9 10 5 6 6 6 9 10 12 12 10 5 3 1 3 3
17 15 15 13 14 14 14 14 15 14 13 13 12 11 8 6 5 5 8 6 4 3 5 4 3 5 14 11 10 9 10 8 8 10 4 7 8 5 6 8 8 9 11 11 12 7 12 10 6 3 2 2 3 3
14 13 13 12 12 11 13 13 13 12 11 10 9 6 3 3 4 6 9 7 6 5 6 5 7 5 12 16 12 8 8 6 5 5 11 5 7 7 5 10 12 13 13 13 11 10 10 8 5 2 1 2 3 3
14 14 13 12 12 13 12 12 12 9 8 6 1 1 5 5 8 4 1 5 7 8 8 7 13 3 9 14 9 7 9 6 5 8 4 5 10 14 11 7 10 14 13 14 12 10 8 5 3 2 1 1 2 2
12 12 13 13 13 12 11 12 9 5 2 0 4 1 1 1 4 5 6 6 9 5 9 14 15 7 8 8 8 9 4 4 5 5 5 5 8 14 12 12 15 15 14 12 8 8 4 4 5 3 1 1 2 2
10 11 12 12 12 13 12 11 7 3 6 5 5 5 3 6 6 5 5 5 6 6 8 12 14 13 9 5 6 7 4 3 4 6 4 5 6 17 18 18 18 17 14 13 11 9 8 8 6 5 3 1 1 2
8 8 9 9 9 9 8 8 7 9 5 3 4 3 6 7 1 7 10 5 5 6 9 11 9 13 5 11 5 4 5 5 3 4 5 2 14 16 20 21 19 17 15 13 11 10 9 9 7 5 3 2 1 2
7 7 8 9 9 9 9 8 7 7 4 3 7 3 6 6 6 8 9 7 5 5 14 16 15 12 10 8 5 5 5 3 5 7 10 9 17 20 22 21 20 18 15 12 11 10 10 8 7 5 3 1 2 2
7 6 6 7 7 7 9 10 8 10 3 5 6 5 9 13 3 6 4 2 6 11 14 13 13 8 6 6 4 3 5 5 5 8 2 20 21 22 22 21 19 16 13 11 10 10 9 8 6 4 1 0 2 4
7 6 6 7 8 7 7 9 11 7 4 5 7 7 9 6 8 9 10 12 11 11 13 13 5 5 7 4 6 7 6 5 2 3 16 17 22 22 21 19 16 14 12 11 10 10 9 8 6 3 2 1 3 4
5 5 9 7 9 9 7 13 8 6 6 6 8 12 13 11 7 12 12 10 11 12 7 6 7 6 4 7 8 7 7 2 7 7 10 17 23 23 20 18 16 14 12 11 11 10 10 8 6 3 2 3 4 4
2 8 10 10 7 9 14 9 7 7 9 13 6 5 9 11 8 4 8 4 10 15 15 3 5 5 5 8 8 6 6 10 8 10 13 19 21 20 19 17 15 14 13 12 11 11 10 9 7 8 3 2 5 3
6 8 8 13 6 7 9 7 6 5 12 5 8 8 6 9 10 10 7 9 9 5 3 6 3 5 6 3 6 12 12 11 12 11 14 17 19 20 18 16 14 14 13 12 12 11 10 10 6 3 2 2 3 3
9 10 9 10 13 4 4 5 7 5 4 6 5 6 8 12 9 12 13 13 12 10 6 4 7 4 13 3 11 8 9 8 13 14 14 16 17 18 17 16 14 14 12 11 11 11 10 8 6 5 3 1 1 3
10 7 6 10 13 8 4 4 7 5 4 6 11 6 6 11 13 12 13 14 13 16 12 12 14 4 5 3 3 5 4 8 11 13 19 17 17 17 15 15 14 13 13 11 11 11 12 10 8 7 5 3 1 2
7 5 3 11 5 5 5 6 3 3 3 5 10 13 6 10 12 14 14 15 19 16 17 7 4 3 7 4 3 4 7 9 4 5 11 14 17 18 16 15 15 16 14 14 11 12 12 11 9 7 6 6 3 3
7 4 3 6 5 5 3 4 3 4 2 3 7 4 3 4 6 3 6 12 15 15 15 11 5 5 1 7 5 5 6 7 11 14 13 15 18 18 18 17 19 17 18 14 12 12 13 12 12 9 7 7 6 6
6 3 2 4 6 3 3 3 2 3 2 2 2 2 3 7 8 7 8 11 11 10 13 13 12 12 12 9 9 10 8 10 11 12 11 14 12 12 11 11 12 14 11 17 15 13 14 14 12 10 8 10 9 9
2 3 3 4 4 3 3 3 3 3 3 4 2 3 3 5 3 4 6 11 11 13 11 11 13 16 19 19 17 17 14 13 12 11 12 10 11 10 10 13 12 11 13 12 11 14 14 13 13 10 10 11 9 12
4 4 4 3 3 3 3 3 5 5 3 5 5 4 5 4 5 4 7 10 9 8 6 9 11 12 13 14 14 14 16 18 17 16 15 14 13 12 13 16 16 14 14 20 9 20 14 13 11 11 10 6 10 11
3 3 6 5 4 3 3 2 3 3 4 5 4 5 5 4 6 4 6 5 7 6 4 3 4 6 7 7 8 11 14 12 12 17 20 20 15 13 18 10 16 12 12 11 14 15 15 12 7 7 9 9 9 7
5 3 2 9 8 7 2 3 4 5 6 6 3 4 3 3 3 6 9 8 6 5 4 4 3 4 5 6 7 10 12 12 12 13 14 17 19 12 9 9 9 10 9 15 15 14 12 10 9 7 8 6 5 4
5 4 4 6 6 4 5 5 4 4 3 2 2 3 1 4 2 7 7 7 6 6 7 7 7 6 5 6 6 9 11 11 12 13 16 18 17 16 11 11 11 11 12 15 16 9 9 8 8 9 7 6 3 2
4 5 4 4 5 5 7 9 8 8 6 5 5 6 7 8 9 8 9 10 10 11 10 10 11 10 9 8 7 9 11 12 13 15 16 21 22 18 14 15 13 14 16 14 13 11 10 8 9 8 7 6 6 3
2 4 4 6 4 5 8 9 8 8 9 10 10 12 13 12 13 13 14 15 15 14 13 12 11 11 10 10 10 7 12 11 11 12 8 18 18 19 19 15 17 17 15 14 11 9 9 10 10 11 8 10 7 3
7 8 4 3 4 6 6 10 10 11 12 13 14 13 12 11 11 13 12 10 10 12 13 13 12 10 8 6 8 7 5 3 11 12 8 17 15 16 18 19 18 15 12 10 10 10 11 11 9 4 6 9 8 11
4 3 6 5 5 4 3 4 5 8 5 5 4 5 4 3 5 7 8 8 8 7 6 9 10 5 9 8 5 6 8 2 13 17 19 16 21 19 20 18 16 13 12 10 10 9 10 9 7 4 7 5 5 7
Wind_Direction
278 272 275 279 285 295 301 314 326 329 333 340 343 344 345 347 347 358 300 335 4 295 298 331 340 334 309 261 293 109 204 212 226 252 268 274 260 263 270 272 281 259 263 262 243 262 253 106 157 251 78 133 110 77
273 272 270 274 283 291 290 304 318 326 326 333 338 339 338 339 341 343 12 326 319 270 289 305 265 253 249 332 338 258 347 336 11 286 231 297 288 245 260 279 115 247 272 317 342 33 81 48 49 100 106 115 107 117
267 268 270 275 275 283 286 296 309 322 318 326 330 333 332 329 329 323 315 329 326 278 284 244 251 226 231 249 248 286 207 354 245 314 307 304 285 300 278 254 266 173 223 265 282 124 132 123 121 115 117 114 106 85
275 265 267 269 273 275 282 290 300 316 310 318 322 325 325 321 315 310 297 292 323 293 277 169 219 250 226 226 220 234 268 247 273 270 268 262 262 238 261 311 284 34 148 233 240 133 140 157 143 126 119 110 90 63
266 270 265 268 268 266 274 282 291 303 307 310 314 317 317 314 306 301 294 273 271 279 321 315 221 232 235 212 213 222 233 238 239 229 237 247 255 273 257 281 267 224 241 238 325 147 231 151 148 153 141 117 65 354
265 266 260 262 263 268 273 278 285 301 298 304 307 310 310 307 299 326 221 270 232 275 284 259 159 197 200 195 193 200 209 221 240 248 254 254 69 285 264 241 250 237 148 233 214 166 146 137 142 141 147 134 338 341
262 261 254 254 260 264 267 277 286 290 297 301 302 304 303 293 263 218 351 194 224 209 249 250 224 188 189 183 186 191 202 215 242 233 243 252 194 195 257 262 247 181 177 197 152 142 136 154 146 138 127 13 0 355
253 249 248 247 256 264 273 276 285 290 297 301 299 299 295 279 262 255 248 237 191 216 244 261 227 173 193 195 192 202 206 210 211 248 203 257 189 223 254 239 148 163 161 164 169 185 168 149 146 126 78 8 327 334
244 239 237 245 257 266 271 276 285 288 300 300 298 297 286 240 219 203 258 219 213 228 290 223 245 197 175 216 205 176 233 217 180 230 239 218 228 217 239 222 179 177 178 168 161 151 149 154 147 113 41 348 331 335
230 231 233 240 259 261 270 280 283 291 300 296 280 237 214 180 243 228 175 185 204 213 231 253 242 228 191 192 187 201 196 240 209 212 184 233 247 244 180 184 193 185 185 171 164 161 162 164 160 146 82 17 4 345
226 235 243 248 252 259 274 277 283 297 345 93 221 224 353 135 164 211 218 214 191 219 214 224 232 214 208 197 201 212 186 213 238 193 216 228 228 178 171 175 177 176 171 175 165 140 145 154 168 169 142 40 356 341
234 239 244 250 255 257 266 269 264 126 236 215 213 232 187 202 218 217 208 205 222 226 171 204 198 213 160 221 229 153 253 172 258 128 232 241 118 136 158 161 164 164 157 152 146 134 129 130 137 137 126 94 354 336
237 239 238 244 250 257 254 257 251 219 218 215 197 222 202 205 278 218 203 199 209 193 156 178 178 182 149 211 226 170 228 225 105 221 231 56 138 151 156 158 157 157 154 148 138 136 138 137 134 134 124 74 8 341
245 249 256 268 271 262 244 231 221 185 157 211 200 256 222 199 226 213 233 222 156 181 168 182 171 191 182 184 193 212 210 160 229 235 230 151 154 155 158 160 157 158 156 150 148 150 151 147 145 136 121 70 23 341
259 260 261 263 263 234 219 214 196 170 207 232 219 235 219 239 261 254 252 104 180 186 168 171 171 201 181 189 216 193 169 236 221 233 118 129 151 159 162 162 162 161 158 158 161 164 165 165 162 163 151 37 356 346
264 272 270 255 218 217 230 203 182 154 240 240 241 253 251 268 234 201 204 212 173 183 178 172 171 219 183 214 190 201 222 221 201 180 105 141 153 161 163 164 164 163 163 165 169 173 174 175 180 188 204 313 320 324
258 234 226 240 232 200 178 161 152 196 231 234 230 241 276 304 255 193 195 196 178 203 192 205 190 174 222 219 209 212 218 188 120 111 140 159 161 162 162 162 163 162 164 168 171 174 177 177 179 186 245 301 302 302
276 255 243 229 199 173 177 176 185 213 232 236 238 273 234 256 269 228 207 158 197 220 218 225 330 209 196 221 223 177 216 126 128 133 147 154 158 160 163 163 164 163 165 169 174 177 180 181 193 216 227 280 280 242
280 295 279 223 215 183 180 204 206 236 234 236 230 253 273 252 242 253 228 199 227 278 259 222 212 244 227 57 305 160 149 153 154 150 148 156 161 162 164 165 164 166 169 173 177 184 192 196 222 233 231 280 344 335
299 292 277 238 207 195 215 215 198 254 244 216 212 241 246 248 242 228 226 225 214 210 214 234 230 44 36 241 110 97 137 131 148 150 159 166 170 169 171 173 176 178 174 179 184 187 192 200 208 214 219 234 0 5
310 307 254 209 208 208 247 226 209 239 265 214 197 208 255 254 238 235 232 218 217 221 228 225 239 184 134 158 235 211 222 183 195 185 174 171 184 183 184 186 186 187 186 188 194 197 198 206 204 198 186 223 247 325
304 270 207 182 186 208 251 240 254 225 259 312 158 173 206 259 244 231 222 223 225 224 231 235 290 229 221 208 172 157 165 171 205 182 185 176 183 196 189 199 198 201 204 195 200 203 203 208 207 200 205 206 266 259
304 202 176 189 211 220 245 207 228 196 220 205 152 177 207 217 259 191 227 229 227 225 229 224 204 219 214 156 176 179 186 202 207 220 202 199 205 196 197 202 206 203 206 207 202 204 204 201 204 211 215 224 253 284
290 225 225 211 208 227 201 192 229 199 219 244 213 209 208 199 201 219 233 222 218 215 219 222 219 220 219 217 217 207 206 199 209 204 201 212 228 206 213 217 241 255 204 208 198 208 207 197 205 216 226 239 237 266
230 230 208 233 211 221 205 181 191 214 213 185 227 233 192 199 226 233 217 213 207 204 200 199 217 227 234 235 231 225 211 214 214 213 211 215 211 247 241 250 253 242 225 216 208 210 206 207 202 218 223 243 246 259
242 207 208 214 200 200 209 191 188 200 207 174 218 254 197 199 217 231 203 198 160 158 181 215 221 219 226 233 239 236 232 229 224 221 225 219 216 223 243 233 222 225 228 229 215 226 210 206 211 231 236 253 266 270
245 185 187 194 231 241 212 169 266 253 215 202 183 190 206 221 213 186 125 132 125 129 148 160 185 210 234 238 233 228 230 228 231 234 236 230 234 227 237 247 235 210 193 229 204 202 203 200 212 250 240 266 276 267
244 243 211 183 205 239 226 208 205 212 211 214 200 219 217 262 51 108 146 124 138 167 183 194 210 222 234 241 233 222 225 225 227 234 231 217 212 222 223 228 214 208 203 209 198 193 201 207 213 230 250 255 253 267
233 213 232 229 221 243 242 225 223 205 197 245 260 183 72 59 70 110 155 199 220 230 240 244 241 245 257 244 243 220 224 219 211 214 212 207 194 204 202 205 179 184 185 181 186 180 204 215 221 217 213 228 231 240
243 203 205 239 219 220 227 216 229 235 237 235 243 271 264 253 254 254 250 249 247 250 252 252 248 248 258 252 239 228 220 225 238 211 201 211 198 198 192 176 176 175 172 176 185 198 208 217 213 203 212 217 212 247
195 216 242 248 251 247 253 256 243 242 251 260 264 267 271 278 275 268 264 259 254 251 249 249 245 242 249 251 235 216 239 220 220 218 213 192 187 181 178 178 173 175 176 176 172 190 192 185 197 212 225 255 201 273
198 197 230 283 291 309 292 264 254 255 255 251 252 254 259 267 278 284 271 255 246 242 239 238 236 235 234 209 205 174 195 183 182 178 162 164 171 183 182 171 166 170 168 176 184 186 189 202 217 235 248 201 326 217
226 234 265 279 274 290 28 339 333 336 337 332 311 300 292 314 272 264 259 249 231 232 231 210 203 216 173 185 156 152 145 129 174 183 176 170 164 159 167 170 170 171 173 184 186 186 192 206 205 257 273 285 294 282